{"data":{"norad_id":63371,"intl_designator":"2025-063J","name":"STARLINK-33648","alt_names":[],"object_type":"PAYLOAD","status":"ACTIVE","operator":null,"country":"US","launch_date":"2025-03-26","launch_site_code":"AFWTR","launch_vehicle":null,"mission":null,"orbit_class":"UNKNOWN","rcs_meters":null,"size_class":null,"mass_kg":null,"dimensions":null,"purposes":["comms"],"wikipedia_slug":null,"has_3d_model":false,"image_url":null,"decayed_at":null,"tle_current":{"epoch":"2026-05-25T03:38:25.833696Z","epoch_age_seconds":61704,"freshness":"FRESH","line1":"1 63371U 25063J   26145.15168789  .00014059  00000+0  48579-3 0  9993","line2":"2 63371  53.1600  57.4808 0001046  87.7423 272.3698 15.30206312 66463","mean_motion":15.30206312,"eccentricity":0.0001046,"inclination_deg":53.16,"raan_deg":57.4808,"arg_perigee_deg":87.7423,"mean_anomaly_deg":272.3698,"bstar":0.00048579,"rev_number":6646,"period_min":94.104957528106,"perigee_km":474.47936433473,"apogee_km":475.91308164498,"semimajor_km":6853.3332229899,"source":"CELESTRAK","updated_at":"2026-05-25T13:38:19.963074Z"}}}